BREEZE-KM DEB, 41719

Orbit data source: Space-Track

BREEZE-KM DEB, 41719 is space debris in LEO originally from a launch on Tue, 31 Mar 2015 UTC launched from the Plesetsk Missile And Space Complex (PKMTR). Debris objects in space refer to the collection of defunct objects orbiting the Earth. Examples of debris include non-operational satellites, rocket bodies, and fragments generated from explosions, collisions, or faulty payload assembly.

Loading next visibility...
BREEZE-KM DEB details
Identifier
41719, 2015-020G
Orbit
LEO
Last TLE update10 hours ago
Origin
Flag of CISVVKO VKS (CIS)
ManufacturerKhrunichev
MissionSpacecraft
Bus & MotorUnknown
MassUnknown
Launch date (UTC)
2015-03-31 (10 years ago)
Launch vehicleUnknown
Launch site
Plesetsk Missile And Space Complex (PKMTR)
Object type
Payload
Rocket body
Debris
Shape & HBRUnknown
Radar Cross SectionSmall (<0.1 m²)

Expand to show TLE details & history

TLE from 10 hours ago
0 BREEZE-KM DEB
1 41719U 15020G   24361.08593672  .00000038  00000-0  12350-3 0  9991
2 41719  82.4901 229.3257 0221425 299.9545  57.9733 12.75159989443873
Epoch: 2024-12-26T02:03Z
Definitive object data (Epoch: 2024-12-26T02:03:44.932Z)
Latitude-0.00002°
Longitude103.31809°
Altitude1,275.624 km
Speed7.259 km/s
True Right ascension15h 17m 18s
True Declination0° 00' 00"
Sunlit
Object was in daylight at TLE epoch
Visualization TLE readout
Latitude39.61041°
Longitude-83.19486°
Altitude1,525.912 km
Speed7.033 km/s
Apparent Right ascension01h 24m 31s
Apparent Declination5° 24' 02"
Sunlit
Object is in full shadow
Visualization observer readout
Local Sidereal Time11:35:02
Azimuth324.408° NNW
Elevation-38.149°
Doppler factor1
Orbital elements
Apogee altitude1,529.599 km
Perigee altitude1,186.991 km
Semi-major axis7,736.432 km
Eccentricity0.0221425
Inclination82.4901°
RAAN229.3257°
Arg. of periapsis299.9545°
True anomaly60.15596°
Mean anomaly57.9733°
Eccentric anomaly59.06146°
Mean motion3.18957 °/min
BSTAR0.0001235
Orbital period112.87 mins
Loading maneuver chart data...
Loading historical data...
Loading historical data...
Loading historical data...
Loading historical data...
Loading historical data...
Loading historical data...
Loading historical data...

BREEZE-KM DEB Visibility forecast

Observer location: undefined°, undefined

Span
Click to sort rows by Start time (UTC) header in descending order
Start Az.
Max El. time (UTC)
Max El. Az.
Max El.
End time (UTC)
End Az.
14 mins2024-12-26 15:20:33.928Z152.476° SSE2024-12-26 15:27:33.928Z78.608° E34.383°2024-12-26 15:34:33.928Z20.934° NNE
13 mins2024-12-26 17:15:33.928Z229.708° WSW2024-12-26 17:20:33.928Z281.347° WNW31.823°2024-12-26 17:28:33.928Z353.402° N
9 mins2024-12-27 01:17:33.928Z29.334° NE2024-12-27 01:21:33.928Z58.34° ENE16.723°2024-12-27 01:26:33.928Z95.181° ESE
16 mins2024-12-27 03:09:33.928Z354.563° N2024-12-27 03:17:33.928Z113.084° SE44.637°2024-12-27 03:25:33.928Z170.363° S
10 mins2024-12-27 05:05:33.928Z315.69° NNW2024-12-27 05:09:33.928Z285.158° WNW19.549°2024-12-27 05:15:33.928Z240.036° WSW
|